Location: L�tisburg
(47.3947°N, 9.0820°E)
Time: 07:30:24
(UTC+00:00)

Cosmos 1707 Rocket - Pass Details

Date: 17 June 2021
Orbit: 604 x 632 km, 82.5° (Epoch: 27 July)

Event Time Altitude Azimuth Distance (km) Brightness Sun altitude
Rises 02:29:56 0° 9° (N) 2,914 8.1 -7.9°
Reaches altitude 10° 02:34:07 10° 47° (NE) 1,991 7.9 -7.4°
Maximum altitude 02:35:11 11° 62° (ENE) 1,936 7.5 -7.3°
Drops below altitude 10° 02:36:16 10° 76° (ENE) 1,983 7.2 -7.1°
Sets 02:40:22 0° 114° (ESE) 2,873 7.3 -6.7°
